Station JMPN7 - 8658163 - Wrightsville Beach, NC Image indicating link to RSS feed of recent meteorological observations for station JMPN7


Conditions at JMPN7 as of
(6:30 am EDT)
1030 GMT on 09/01/2026:
     

Click on the graph icon in the table below to see a time series plot of the last five days of that observation.

5-day plot - Wind Direction Wind Direction (WDIR):NNW ( 330 deg true )
5-day plot - Wind Speed Wind Speed (WSPD): 4.1 kts
5-day plot - Wind Gust Wind Gust (GST): 5.1 kts
5-day plot - Atmospheric Pressure Atmospheric Pressure (PRES):30.06 in
5-day plot - Air Temperature Air Temperature (ATMP): 78.4 °F
5-day plot - Wind Speed at 10 Meters Wind Speed at 10 meters (WSPD10M): 3.9 kts
5-day plot - Wind Speed at 20 Meters Wind Speed at 20 meters (WSPD20M): 3.9 kts
5-day plot -  Wind Speed, Wind Gust and Atmospheric Pressure Combined plot of Wind Speed, Gust, and Air Pressure
NOS Water Level Observation Network Water Level
Previous observations
TIME
(EDT)
5-day plot - Wind Direction
WDIR
 
5-day plot - Wind Speed
WSPD
kts
5-day plot - Wind Gust
GST
kts
5-day plot - Wave Height
WVHT
ft
5-day plot - Dominant Wave Period
DPD
sec
5-day plot - Average Wave Period
APD
sec
5-day plot - Mean Wave Direction
MWD
 
5-day plot - Atmospheric Pressure
PRES
in
5-day plot - Pressure Tendency
PTDY
in
5-day plot - Air Temperature
ATMP
°F
5-day plot - Water Temperature
WTMP
°F
5-day plot - Dew Point
DEWP
°F
5-day plot - Salinity
SAL
psu
5-day plot - Visibility
VIS
nmi
5-day plot - Tide (above MLLW)
TIDE
ft
2026-09-01 06:24 amNNW 4.1 5.1----30.06- 78.6-----
2026-09-01 06:18 amNNW 4.1 5.1----30.06-------
2026-09-01 06:12 amNNW 4.1 5.1----30.06-------
2026-09-01 06:06 amNNW 5.1 6.0----30.06-------
2026-09-01 06:00 amNNW 4.1 5.1----30.06- 78.8-----
2026-09-01 05:54 amNNW 4.1 5.1----30.06- 78.8-----
2026-09-01 05:48 amNNW 4.1 5.1----30.06- 78.8-----
2026-09-01 05:42 amNNW 5.1 5.1----30.06- 79.0-----
2026-09-01 05:36 amNNW 4.1 5.1----30.06- 79.0-----
2026-09-01 05:30 amNNW 5.1 5.1----30.06- 79.2-----
2026-09-01 05:24 amNNW 5.1 5.1----30.06- 79.2-----
2026-09-01 05:18 amNNW 4.1 5.1----30.06-------
2026-09-01 05:12 amNNW 4.1 5.1----30.06-------
2026-09-01 05:06 amNNW 4.1 4.1----30.06-------
2026-09-01 05:00 amNNW 4.1 5.1----30.06-0.02 79.3-----
2026-09-01 04:54 am NW 4.1 5.1----30.06- 79.5-----
2026-09-01 04:48 am NW 4.1 5.1----30.06-------
2026-09-01 04:42 am NW 5.1 5.1----30.06-------
2026-09-01 04:36 amNNW 4.1 5.1----30.06-------
2026-09-01 04:30 am NW 4.1 5.1----30.07- 79.5-----
2026-09-01 04:24 am NW 4.1 5.1----30.07- 79.5-----
2026-09-01 04:18 am NW 5.1 5.1----30.07-------
2026-09-01 04:12 amNNW 4.1 5.1----30.07-------
2026-09-01 04:06 amNNW 5.1 5.1----30.07-------
2026-09-01 04:00 amNNW 4.1 4.1----30.07-0.02 79.7-----
2026-09-01 03:54 amNNW 4.1 6.0----30.07- 79.9-----
2026-09-01 03:48 amNNW 5.1 6.0----30.07- 80.1-----
2026-09-01 03:42 am NW 5.1 5.1----30.07- 80.2-----
2026-09-01 03:36 am NW 5.1 5.1----30.07- 80.2-----
2026-09-01 03:30 am NW 4.1 5.1----30.07- 80.2-----
2026-09-01 03:24 amNNW 4.1 5.1----30.07- 80.2-----
2026-09-01 03:18 amNNW 2.9 4.1----30.07- 80.4-----
2026-09-01 03:12 amNNW 2.9 2.9----30.07- 80.6-----
2026-09-01 03:06 amNNW 2.9 2.9----30.07- 80.8-----
2026-09-01 03:00 am NW 2.9 4.1------ 80.8-----
2026-09-01 02:54 am NW 2.9 2.9------ 81.0-----
2026-09-01 02:48 am NW 2.9 4.1----30.08- 81.1-----
2026-09-01 02:42 am NW 2.9 4.1----30.08- 81.3-----
2026-09-01 02:36 am NW 2.9 2.9----30.08- 81.5-----
2026-09-01 02:30 am NW 1.9 2.9----30.08-------
2026-09-01 02:24 amWNW 1.9 2.9----30.08-------
2026-09-01 02:18 amWNW 1.9 1.9----30.08-------
2026-09-01 02:12 amWNW 1.0 1.9----30.08-------
2026-09-01 02:06 amWNW 1.0 1.9----30.08-------
2026-09-01 02:00 amNNW 1.9 2.9----30.08-0.01 81.5-----
2026-09-01 01:54 amNNW 2.9 2.9----30.08- 81.7-----
2026-09-01 01:48 amNNW 1.9 2.9----30.09- 81.7-----
2026-09-01 01:42 amNNW 1.9 2.9----30.09- 81.9-----
2026-09-01 01:36 amNNW 1.9 2.9----30.09- 82.2-----
2026-09-01 01:30 am NW 1.0 1.9----30.09- 82.2-----
2026-09-01 01:24 amWNW 1.9 1.9----30.09- 82.4-----
2026-09-01 01:18 am W 1.9 1.9----30.09-------
2026-09-01 01:12 am W 1.9 2.9----30.09-------
2026-09-01 01:06 amWSW 1.9 2.9----30.09-------
2026-09-01 01:00 amWSW 1.9 2.9----30.09+0.00 82.9-----
2026-09-01 12:54 amWSW 2.9 2.9----30.09- 83.1-----
2026-09-01 12:48 amWSW 1.9 2.9----30.09- 83.1-----
2026-09-01 12:42 am SW 2.9 5.1----30.09- 83.7-----
2026-09-01 12:36 amSSW 4.1 5.1----30.09- 83.7-----
2026-09-01 12:30 amSSW 4.1 5.1----30.09- 83.7-----
2026-09-01 12:24 amSSW 5.1 5.1----30.09- 83.7-----
2026-09-01 12:18 amSSW 4.1 4.1----30.09-------
2026-09-01 12:12 am SW 4.1 5.1----30.10-------
2026-09-01 12:06 amSSW 4.1 5.1----30.09-------
2026-09-01 12:00 amSSW 4.1 5.1----30.09+0.02 83.7-----
2026-08-31 11:54 pmSSW 4.1 4.1----30.10- 83.8-----
2026-08-31 11:48 pmSSW 4.1 5.1----30.10-------
2026-08-31 11:42 pmSSW 4.1 5.1----30.09-------
2026-08-31 11:36 pm S 5.1 6.0----30.09-------
2026-08-31 11:30 pm S 5.1 6.0----30.09- 83.8-----
2026-08-31 11:24 pm S 5.1 6.0----30.09- 83.8-----
2026-08-31 11:18 pm S 5.1 6.0------------
2026-08-31 11:12 pm S 5.1 6.0------------
2026-08-31 11:06 pm S 6.0 6.0------------
2026-08-31 11:00 pm S 6.0 6.0----30.09+0.02 83.8-----
2026-08-31 10:54 pm S 6.0 6.0----30.09- 83.8-----
2026-08-31 10:48 pm S 6.0 6.0----30.09- 83.8-----
2026-08-31 10:42 pm S 5.1 6.0----30.09- 83.8-----
2026-08-31 10:36 pm S 5.1 6.0----30.10- 83.8-----
2026-08-31 10:30 pm S 5.1 6.0----30.09- 84.0-----
2026-08-31 10:24 pm S 5.1 6.0----30.10- 84.0-----
2026-08-31 10:18 pm S 5.1 6.0----30.10-------
2026-08-31 10:12 pm S 5.1 6.0----30.10-------
2026-08-31 10:06 pm S 4.1 5.1----30.10-------
2026-08-31 10:00 pm S 5.1 5.1----30.09+0.02 84.0-----
2026-08-31 09:54 pm S 5.1 6.0----30.09- 84.0-----
2026-08-31 09:48 pm S 5.1 5.1----30.09- 84.0-----
2026-08-31 09:42 pm S 5.1 6.0----30.09- 84.2-----
2026-08-31 09:36 pm S 6.0 6.0----30.09- 84.2-----
2026-08-31 09:30 pm S 6.0 6.0----30.09- 84.2-----
2026-08-31 09:24 pm S 5.1 6.0----30.08- 84.2-----
2026-08-31 09:18 pm S 5.1 6.0----30.08-------
2026-08-31 09:12 pmSSE 5.1 6.0----30.08-------
2026-08-31 09:06 pmSSE 6.0 7.0----30.08-------
2026-08-31 09:00 pm S 7.0 7.0----30.08+0.00 84.0-----
2026-08-31 08:54 pmSSE 7.0 8.0----30.08- 84.2-----
2026-08-31 08:48 pm S 7.0 8.0----30.07-------
2026-08-31 08:42 pm S 8.0 8.9----30.07-------
2026-08-31 08:36 pm S 7.0 8.0----30.07-------
2026-08-31 08:30 pm S 8.0 8.9----30.08- 84.0-----
2026-08-31 08:24 pmSSE 7.0 8.0----30.08- 84.0-----
2026-08-31 08:18 pmSSE 8.0 8.9----30.08-------
2026-08-31 08:12 pmSSE 8.0 8.9----30.08-------
2026-08-31 08:06 pmSSE 7.0 8.0----30.07-------
2026-08-31 08:00 pmSSE 7.0 8.0----30.07+0.00 84.2-----
2026-08-31 07:54 pmSSE 7.0 7.0----30.07- 84.0-----
2026-08-31 07:48 pmSSE 7.0 8.0----30.07-------
2026-08-31 07:42 pmSSE 7.0 8.0----30.07-------
2026-08-31 07:36 pmSSE 6.0 7.0----30.07-------
2026-08-31 06:48 pmSSE 8.0 9.9----30.08- 84.2-----
2026-08-31 06:42 pmSSE 8.9 9.9----30.08- 84.2-----
2026-08-31 06:36 pmSSE 8.9 9.9----30.08- 84.4-----
2026-08-31 06:30 pmSSE 8.0 8.9----30.08- 84.6-----
2026-08-31 06:24 pmSSE 8.9 9.9----30.08- 84.6-----
2026-08-31 06:18 pmSSE 8.9 9.9----30.08- 84.6-----
2026-08-31 06:12 pmSSE 8.9 9.9----30.08- 84.6-----
2026-08-31 06:06 pm SE 8.0 8.9----30.08- 84.7-----
2026-08-31 06:00 pm SE 8.0 9.9----30.08-0.02 84.7-----
2026-08-31 05:54 pmSSE 8.9 9.9----30.08- 84.6-----
2026-08-31 05:48 pmSSE 8.0 8.9----30.08- 84.6-----
2026-08-31 05:42 pmSSE 8.0 8.9----30.07- 84.7-----
2026-08-31 05:36 pm SE 8.0 8.9----30.07- 84.9-----
2026-08-31 05:30 pm SE 8.0 8.9----30.07- 85.3-----
2026-08-31 05:24 pmSSE 8.0 8.9----30.08- 84.7-----
2026-08-31 05:18 pmSSE 8.0 8.9----30.08-------
2026-08-31 05:12 pm SE 7.0 8.0----30.07-------
2026-08-31 05:06 pm SE 7.0 8.0----30.07-------
2026-08-31 05:00 pm SE 7.0 8.0----30.07-0.05 85.5-----
2026-08-31 04:54 pm SE 7.0 8.0----30.07- 85.8-----
2026-08-31 04:48 pm SE 6.0 7.0----30.07- 85.8-----
2026-08-31 04:42 pm SE 5.1 6.0----30.07- 85.6-----
2026-08-31 04:36 pm SE 6.0 6.0----30.08- 85.5-----
2026-08-31 04:30 pm SE 6.0 7.0----30.08- 85.5-----
2026-08-31 04:24 pmSSE 7.0 8.9----30.08- 84.9-----
2026-08-31 04:18 pm SE 7.0 8.0----30.08-------
2026-08-31 04:12 pm SE 7.0 8.0----30.08-------
2026-08-31 04:06 pm SE 8.9 8.9----30.08-------
2026-08-31 04:00 pm SE 8.0 8.9----30.08-0.05 85.5-----
2026-08-31 03:54 pm SE 6.0 7.0----30.08- 86.4-----
2026-08-31 03:48 pmESE 6.0 7.0----30.08- 86.2-----
2026-08-31 03:42 pmESE 7.0 8.0----30.08- 86.2-----
2026-08-31 03:36 pmESE 7.0 8.9----30.08- 86.0-----
2026-08-31 03:30 pmESE 7.0 8.0----30.08- 86.2-----
2026-08-31 03:24 pmESE 7.0 8.0----30.09- 86.2-----
2026-08-31 03:18 pm SE 8.0 9.9----30.09-------
2026-08-31 03:12 pm SE 8.9 9.9----30.09-------
2026-08-31 03:06 pmESE 8.9 9.9----30.09-------
2026-08-31 03:00 pm SE 9.9 9.9----30.09-0.04 85.3-----
2026-08-31 02:54 pmESE 8.9 9.9----30.09- 85.6-----
2026-08-31 02:48 pmESE 9.9 9.9----30.10- 85.5-----
2026-08-31 02:42 pmESE 8.0 9.9----30.10- 85.8-----
2026-08-31 02:36 pmESE 8.9 9.9----30.10- 85.6-----
2026-08-31 02:30 pmESE 8.9 9.9----30.10- 85.5-----
2026-08-31 02:24 pmESE 8.9 9.9----30.11- 85.6-----
2026-08-31 02:18 pmESE 8.0 9.9----30.11-------
2026-08-31 02:12 pmESE 8.9 9.9----30.11-------
2026-08-31 02:06 pm SE 8.9 9.9----30.11-------
2026-08-31 02:00 pm SE 8.9 11.1----30.12+0.00 85.5-----
2026-08-31 01:54 pm SE 9.9 11.1----30.12- 85.3-----
2026-08-31 01:48 pmESE 9.9 11.1----30.12-------
2026-08-31 01:42 pm SE 9.9 11.1----30.12-------
2026-08-31 01:36 pmESE 9.9 11.1----30.12-------
2026-08-31 01:30 pmESE 9.9 11.1----30.12- 85.5-----
2026-08-31 01:24 pmESE 9.9 11.1----30.12- 85.6-----
2026-08-31 01:18 pmESE 8.9 9.9----30.12-------
2026-08-31 01:12 pmESE 8.9 11.1----30.12-------
2026-08-31 01:06 pmESE 9.9 11.1----30.12-------
2026-08-31 01:00 pmESE 9.9 9.9----30.12+0.01 85.6-----
2026-08-31 12:54 pmESE 8.9 9.9----30.12- 85.6-----
2026-08-31 12:48 pmESE 8.9 9.9----30.12- 85.3-----
2026-08-31 12:42 pmESE 8.9 9.9----30.12- 85.1-----
2026-08-31 12:36 pmESE 9.9 9.9----30.13- 85.3-----
2026-08-31 12:30 pmESE 8.9 8.9----30.13- 85.8-----
2026-08-31 12:24 pmESE 8.0 8.0----30.13- 85.8-----
2026-08-31 12:18 pmESE 7.0 8.0----30.13-------
2026-08-31 12:12 pmESE 7.0 8.0----30.14-------
2026-08-31 12:06 pmESE 7.0 8.0----30.14-------
2026-08-31 12:00 pmESE 7.0 7.0----30.14+0.02 85.1-----
2026-08-31 11:54 amESE 6.0 7.0----30.14- 85.5-----
2026-08-31 11:48 amESE 6.0 7.0----30.14- 84.9-----
2026-08-31 11:42 amESE 6.0 7.0----30.14- 84.4-----
2026-08-31 11:36 am E 6.0 7.0----30.14- 83.5-----
2026-08-31 11:30 am E 6.0 6.0----30.13- 83.3-----
2026-08-31 11:24 am E 6.0 7.0----30.13- 83.1-----
2026-08-31 11:18 am E 6.0 6.0----30.13-------
2026-08-31 11:12 am E 6.0 6.0----30.13-------
2026-08-31 11:06 am E 5.1 6.0----30.13-------
2026-08-31 11:00 amENE 5.1 6.0----30.12+0.01 82.9-----
2026-08-31 10:54 amENE 5.1 6.0----30.12- 82.8-----
2026-08-31 10:48 amENE 5.1 6.0----30.12- 82.8-----
2026-08-31 10:42 amENE 5.1 6.0----30.12- 82.6-----
2026-08-31 10:36 amENE 5.1 5.1----30.12- 82.6-----
2026-08-31 10:30 amENE 5.1 5.1----30.12- 82.6-----
2026-08-31 10:24 amENE 5.1 5.1----30.12- 82.6-----
2026-08-31 10:18 amENE 4.1 4.1----30.12-------
2026-08-31 10:12 am E 5.1 5.1----30.12-------
2026-08-31 10:06 amENE 5.1 6.0----30.12-------
2026-08-31 10:00 amENE 5.1 5.1----30.11+0.00 82.2-----
2026-08-31 09:54 amENE 5.1 5.1----30.11- 82.0-----
2026-08-31 09:48 amENE 5.1 6.0----30.12-------
2026-08-31 09:42 am NE 6.0 6.0----30.12-------
2026-08-31 09:36 am NE 6.0 6.0----30.11-------
2026-08-31 09:30 am NE 5.1 6.0----30.11- 81.7-----
2026-08-31 09:24 am NE 5.1 6.0----30.11- 81.5-----
2026-08-31 09:18 am NE 6.0 6.0----30.11-------
2026-08-31 09:12 amNNE 5.1 6.0----30.11-------
2026-08-31 09:06 amNNE 4.1 5.1----30.11-------
2026-08-31 09:00 am NE 4.1 5.1----30.11+0.02 80.4-----
2026-08-31 08:54 am NE 2.9 4.1----30.12- 80.2-----
2026-08-31 08:48 amNNE 1.0 2.9----30.12-------
2026-08-31 08:42 amNNE 2.9 5.1----30.12-------
2026-08-31 08:36 amNNE 2.9 5.1----30.11-------
2026-08-31 08:30 amNNE 5.1 7.0----30.11- 79.3-----
2026-08-31 08:24 am N 5.1 6.0----30.11- 79.2-----
2026-08-31 08:18 am N 4.1 5.1----30.11-------
2026-08-31 08:12 amNNE 5.1 5.1----30.11-------
2026-08-31 08:06 am N 5.1 6.0----30.11-------
2026-08-31 08:00 am N 5.1 6.0----30.11+0.04 77.9-----
2026-08-31 07:54 am N 4.1 6.0----30.11- 77.7-----
2026-08-31 07:48 amNNE 5.1 5.1----30.11-------
2026-08-31 07:42 amNNE 5.1 6.0----30.11-------
2026-08-31 07:36 am N 5.1 6.0----30.11-------
2026-08-31 07:30 am N 5.1 6.0----30.11- 77.2-----
2026-08-31 07:24 am N 4.1 5.1----30.11- 77.2-----
2026-08-31 07:18 amNNE 5.1 5.1----30.11-------
2026-08-31 07:12 amNNE 4.1 5.1----30.11-------
2026-08-31 07:06 am NE 4.1 5.1----30.11-------
2026-08-31 07:00 amNNE 4.1 5.1----30.11+0.03 77.0-----
2026-08-31 06:54 am N 4.1 5.1----30.11- 77.0-----